STARLINK-31553, 59363

Orbit data source: Space-Track

STARLINK-31553, 59363 is a payload satellite owned by SpaceX/Seattle (US) in LEO that was launched on Sun, 31 Mar 2024 UTC via an FALCON 9 launch vehicle from the Air Force Eastern Test Range (AFETR). Payload-class satellites include a variety of spacecraft equipped with specific instruments for various scientific and technological missions. These include communications satellites like Starlink; space stations such as the ISS; scientific satellites like the Hubble; Earth observation satellites from companies like Planet Labs, Umbra, and HawkEye 360; GPS; miniature CubeSats for education and research; and military/defense satellites.

Loading next visibility...
Identifier
59363, 2024-060R
Orbit
LEO
Country
Flag of USUS
Related business
Manufacturer
SpaceX/Seattle
Mission
Operational Commercial Communications
Bus & Motor
STARLINK V2M, Unknown motor
Mass
730 kg wet, ~700 kg dry
Launch date (UTC)
2024-03-31 (2 years ago)
Launch vehicle
FALCON 9
Launch site
Air Force Eastern Test Range (AFETR)
Object type
Payload
Rocket body
Debris
Shape & HBR
Box + 2 Pan, 17.7 m
Radar Cross Section
33.884 m², Large (>1 m²)

Expand to show TLE details & history
Last TLE update: 15 hours ago

TLE from 15 hours ago
0 STARLINK-31553
1 59363U 24060R   25289.19466534  .00002607  00000-0  10423-3 0  9990
2 59363  43.0032 348.9997 0001090 268.9816  91.0910 15.27581754 88044
Epoch: 2025-10-16T04:40Z
TLE epoch observation values (Epoch: 2025-10-16T04:40:19.085Z)
Latitude
-0.00007°
Longitude
-106.03778°
Altitude
482.834 km
Speed
7.626 km/s
True Right ascension
23h 15m 59s
True Declination
0° 00' 00"
Sunlit
Object was in full shadow at epoch
Visualization orbit readout
Latitude
Unknown
Longitude
Unknown
Altitude
Unknown
Speed
Unknown
Apparent Right ascension
Unknown
Apparent Declination
Unknown
Sunlit
N/A
Visualization observer readout
Local Sidereal Time
14:30:19
Azimuth
Unknown
Elevation
Unknown
Doppler factor
Unknown
Orbital elements
Apogee altitude
485.737 km
Perigee altitude
484.24 km
Semi-major axis
6,863.125 km
Eccentricity
0.00011
Inclination
43.0032°
RAAN
348.9997°
Arg. of periapsis
268.9816°
True anomaly
91.10349°
Mean anomaly
91.091°
Eccentric anomaly
91.09724°
Mean motion
3.81733 °/min
Orbital period
94.31 mins
BSTAR
0.00010423
Loading maneuver chart data...
Computing Atmospheric mass density...
Loading historical data...
Loading historical data...
Loading historical data...
Loading historical data...
Loading historical data...
Loading historical data...
Loading historical data...

Documentation

Showing up to 5 results
|